Location: Bothwell
(42.3833°S, 147.0000°E)
Time: 00:56:22
(UTC+10:00)

CUTE 1.7 + AOD 2 - Visible Passes

Search period start: 01 October 2022 23:00
Search period end: 12 October 2022 00:00
Orbit: 590 x 606 km, 97.7° (Epoch: 01 October)

Date Brightness Start Highest point End Pass type
(mag) Time Alt. Az. Time Alt. Az. Time Alt. Az.
02 Oct ? 01:56:58 14° SE 01:56:58 14° SE 01:58:23 10° SSE visible
02 Oct ? 04:33:40 24° SSW 04:33:40 24° SSW 04:35:26 10° SSW visible
03 Oct ? 03:07:23 17° SE 03:07:23 17° SE 03:09:22 10° SSE visible
03 Oct ? 04:44:04 22° SW 04:44:04 22° SW 04:45:50 10° SSW visible
04 Oct ? 03:17:47 22° SE 03:17:47 22° SE 03:20:13 10° SSE visible
04 Oct ? 04:54:28 20° SW 04:54:28 20° SW 04:56:10 10° SSW visible
05 Oct ? 03:28:11 27° SE 03:28:11 27° SE 03:30:58 10° S visible
05 Oct ? 05:04:52 18° WSW 05:04:52 18° WSW 05:06:23 10° SW visible
06 Oct ? 03:38:34 34° SE 03:38:34 34° SE 03:41:38 10° S visible
06 Oct ? 05:15:16 15° WSW 05:15:16 15° WSW 05:16:31 10° SW visible
07 Oct ? 03:48:58 42° SE 03:48:58 42° SE 03:52:14 10° S visible
07 Oct ? 05:25:39 12° WSW 05:25:39 12° WSW 05:26:25 10° WSW visible
08 Oct ? 03:59:21 53° SSE 03:59:21 53° SSE 04:02:48 10° S visible
09 Oct ? 04:09:44 62° S 04:09:44 62° S 04:13:19 10° SSW visible
10 Oct ? 02:43:25 10° ESE 02:44:26 11° ESE 02:45:47 10° SE visible
10 Oct ? 04:20:06 61° SW 04:20:06 61° SW 04:23:47 10° SSW visible
11 Oct ? 02:53:48 13° E 02:54:47 14° ESE 02:57:05 10° SSE visible
11 Oct ? 04:30:29 51° WSW 04:30:29 51° WSW 04:34:11 10° SSW visible
